SCP
0 0 0 0 0 0 0 0 0 0 0 0 0 0 0 0 0 0 0 0 0 0 0 0 0 0 0 0 0 0 0 0 0 0 0 0 0 0
0 0 0 0 0 0 0 0 0 0 0 0 0 0 0 0 0 0 0 0 0 0 0 0 0 0 0 0 0 0 0 0 0 0 0 0 0 0
0 0 0 0 0 0 0 0 0 0 0 0 0 0 0 0 0 0 0 0 0 0 0 0 0 0 0 0 0 0 0 0 0 0 0 0 0 0
0 0 0 0 0 0 0 0 0 0 0 0 0 0 0 0 0 0 0 0 0 0 0 0 0 0 0 0 0 0 0 0 0 0 0 0 0 0
0 0 0 0 0 0 0 0 0 0 0 0 0 0 0 0 0 0 0 0 0 0 0 0 0 0 0 0 0 0 0 0 0 0 0 0 0 0
0 0 0 0 0 0 0 0 0 0 0 0 0 0 0 0 0 0 0 0 0 0 0 0 0 0 0 0 0 0 0 0 0 0 0 0 0 0
0 0 0 0 0 0 0 0 0 0 0 0 0 0 0 0 0 0 0 0 0 0 0 0 0 0 0 0 0 0 0 0 0 0 0 0 0 0
0 0 0 0 0 0 0 0 0 0 0 0 0 0 0 0 0 0 0 0 0 0 0 0 0 0 0 0 0 0 0 0 0 0 0 0 0 0
0 0 0 0 0 0 0 0 0 0 0 0 0 0 0 0 0 0 0 0 0 0 0 0 0 0 0 0 0 0 0 0 0 0 0 0 0 0
0 0 0 0 0 0 0 0 0 0 0 0 0 0 0 0 0 0 0 0 0 0 0 0 0 0 0 0 0 0 0 0 0 0 0 0 0 0
0 0 0 0 0 0 0 0 0 0 0 0 0 0 0 0 0 0 0 0 0 0 0 0 0 0 0 0 0 0 0 0 0 0 0 0 0 0
0 0 0 0 0 0 0 0 0 0 0 0 0 0 0 0 0 0 0 0 0 0 0 0 0 0 0 0 0 0 0 0 0 0 0 0 0 0
0 0 0 0 0 0 0 0 0 0 0 0 0 0 0 0 0 0 0 0 0 0 0 0 0 0 0 0 0 0 0 0 0 0 0 0 0 0
0 0 0 0 0 0 0 0 0 0 0 0 0 0 0 0 0 0 0 0 0 0 0 0 0 0 0 0 0 0 0 0 0 0 0 0 0 0
0 0 0 0 0 0 0 0 0 0 0 0 0 0 0 0 0 0 0 0 0 0 0 0 0 0 0 0 0 0 0 0 0 0 0 0 0 0
0 0 0 0 0 0 0 0 0 0 0 0 0 0 0 0 0 0 0 0 0 0 0 0 0 0 0 0 0 0 0 0 0 0 0 0 0 0
0 0 0 0 0 0 0 0 0 0 0 0 0 0 0 0 0 0 0 0 0 0 0 0 0 0 0 0 0 0 0 0 0 0 0 0 0 0
0 0 0 0 0 0 0 0 0 0 0 0 0 0 0 0 0 0 0 0 0 0 0 0 0 0 0 0 0 0 0 0 0 0 0 0 0 0
0 0 0 0 0 0 0 0 0 0 0 0 0 0 0 0 0 0 0 0 0 0 0 0 0 0 0 0 0 0 0 0 0 0 0 0 0 0
0 0 0 0 0 0 0 0 0 0 0 0 0 0 0 0 0 0 0 0 0 0 0 0 0 0 0 0 0 0 0 0 0 0 0 0 0 0
0 0 0 0 0 0 0 0 0 0 0 0 0 0 0 0 0 0 0 0 0 0 0 0 0 0 0 0 0 0 0 0 0 0 0 0 0 0
0 0 0 0 0 0 0 0 0 0 0 0 0 0 0 0 0 0 0 0 0 0 0 0 0 0 0 0 0 0 0 0 0 0 0 0 0 0
0 0 0 0 0 0 0 0 0 0 0 0 0 0 0 0 0 0 0 0 0 0 0 0 0 0 0 0 0 0 0 0 0 0 0 0 0 0
Wind_Speed
2 2 2 2 2 2 2 2 3 2 1 1 1 1 2 2 3 2 3 7 7 7 8 8 9 9 10 10 10 11 11 11 11 11 12 12 12 12
2 3 3 2 2 2 2 1 2 2 1 1 1 1 2 3 4 2 3 7 7 7 8 9 9 9 9 10 10 10 10 10 11 11 11 11 11 11
2 3 3 3 2 2 2 2 2 2 3 1 1 2 3 2 2 1 2 2 3 6 7 7 7 8 8 9 9 9 9 9 10 10 10 10 10 10
2 3 3 3 2 2 2 2 1 2 3 3 1 1 1 1 1 1 1 2 2 5 6 5 6 6 7 7 7 8 8 8 9 9 9 9 10 10
2 3 2 3 2 2 2 1 1 2 2 3 1 1 1 1 2 2 2 2 1 2 3 3 4 4 5 5 5 6 6 7 7 7 8 8 8 8
3 3 3 3 3 2 2 2 2 2 2 2 1 1 1 0 1 1 2 2 1 1 1 2 2 2 3 3 3 4 4 5 5 6 6 7 7 7
3 3 4 7 7 5 3 3 3 2 1 1 1 1 0 1 0 1 0 1 2 1 1 1 0 1 1 2 2 3 3 4 4 5 5 6 6 6
3 3 5 5 7 7 8 7 5 2 1 1 1 1 1 1 0 0 0 1 2 2 1 2 1 0 0 1 1 2 2 2 3 4 4 5 5 6
2 3 3 4 5 4 4 4 3 2 2 2 1 1 1 1 1 0 1 0 1 1 1 2 1 1 1 1 3 2 1 1 2 3 4 5 5 6
1 2 4 3 3 4 3 3 2 1 1 1 2 1 1 0 2 2 1 0 0 1 1 1 2 1 1 1 3 3 2 1 1 2 3 4 5 6
1 2 2 3 4 4 4 3 2 1 2 4 3 2 2 2 2 2 1 1 2 2 0 1 2 2 1 1 2 3 3 3 3 3 3 4 5 6
1 2 3 4 4 4 3 2 1 0 1 1 0 1 0 1 1 1 1 1 1 2 2 0 1 2 2 2 1 1 2 3 5 5 5 5 5 3
2 2 2 4 4 4 2 2 2 0 0 1 1 0 0 0 0 0 1 1 1 1 1 1 1 1 1 3 2 1 1 1 2 3 5 6 5 3
2 2 3 6 5 4 2 2 2 2 1 1 1 0 0 0 1 0 0 0 1 1 1 0 0 0 1 2 3 3 2 2 1 2 2 3 4 4
2 4 5 6 5 3 2 2 1 1 0 0 0 1 0 0 0 1 1 1 1 1 1 1 0 0 0 2 3 2 3 3 2 2 2 2 2 2
2 4 5 5 3 2 2 1 0 1 1 1 1 0 0 1 0 0 0 1 1 2 2 2 1 1 1 2 2 3 2 3 2 2 2 2 3 2
4 3 2 2 1 0 0 1 1 1 1 1 1 0 0 0 0 0 0 1 0 1 2 3 2 1 2 2 2 3 3 3 3 2 2 3 3 3
5 2 2 2 2 2 1 1 1 1 1 1 1 1 1 1 0 0 0 0 1 2 2 2 2 3 3 3 2 2 2 3 3 3 2 3 4 3
4 2 2 2 2 2 2 2 2 2 1 1 1 1 1 1 1 1 1 1 1 2 2 1 1 1 2 4 4 2 2 3 3 3 3 3 4 4
2 2 2 2 2 2 2 2 2 1 1 1 1 1 1 1 1 1 1 1 2 2 2 1 0 1 2 4 4 4 3 2 2 3 3 3 4 5
2 1 1 2 2 2 2 1 1 1 1 1 2 2 2 1 1 1 1 2 2 2 2 3 3 3 2 2 4 4 4 4 4 3 3 3 4 4
2 2 2 1 1 1 1 1 1 1 1 1 1 1 1 1 2 2 1 1 2 2 3 2 2 1 1 3 4 5 5 4 5 6 5 4 3 4
2 2 2 2 1 1 1 1 1 1 1 1 1 1 1 1 1 1 2 2 2 2 2 2 2 2 2 3 4 4 5 4 3 3 4 7 8 9
Wind_Direction
75 86 90 76 74 69 78 105 124 111 71 93 76 83 95 87 71 65 67 64 63 60 58 55 54 52 51 50 50 49 47 47 46 45 44 43 43 43
82 74 71 67 68 65 64 41 74 123 116 101 114 122 88 86 82 65 74 79 68 69 66 63 59 56 53 51 50 48 44 43 42 41 40 39 38 39
115 110 101 84 79 67 55 48 52 88 109 87 84 96 89 79 73 69 86 84 64 76 73 66 62 57 53 51 48 45 42 39 36 36 35 35 34 33
97 102 109 104 93 80 60 58 74 91 117 122 89 61 86 94 93 58 63 88 84 83 84 76 68 61 54 49 46 42 39 36 35 33 32 31 30 28
87 94 101 116 118 115 106 82 84 90 102 122 124 70 63 59 53 24 21 26 62 94 98 90 80 70 56 47 46 42 39 36 33 31 28 26 24 22
87 83 78 86 94 105 101 91 96 89 92 100 110 95 67 29 73 22 360 354 354 32 59 113 112 93 65 48 50 48 42 34 29 26 22 19 17 15
110 104 96 94 86 83 87 73 75 79 98 106 107 82 43 16 299 239 344 310 325 4 11 21 105 69 53 37 44 50 48 40 32 25 18 12 8 5
131 132 125 113 106 97 91 85 86 92 103 108 115 137 224 211 217 57 316 12 322 328 18 324 64 33 219 161 116 99 70 42 31 22 12 5 357 350
127 128 120 124 128 123 109 96 73 71 107 132 121 200 190 182 147 346 325 146 222 267 28 314 325 304 261 154 153 141 119 55 33 14 2 354 344 334
78 115 123 119 122 125 128 117 109 78 135 137 150 165 93 133 147 168 197 32 318 330 90 284 304 284 282 218 185 172 169 169 336 338 338 338 333 328
75 69 111 117 123 120 121 131 131 161 149 132 137 138 99 64 70 69 34 41 317 300 292 188 287 305 292 250 232 209 213 228 263 289 302 317 324 326
133 96 94 117 117 116 120 137 141 210 120 115 107 311 301 354 40 127 158 165 252 302 312 45 318 355 329 305 289 242 259 267 267 274 279 290 307 319
152 145 134 139 134 129 132 131 143 98 304 168 171 178 85 77 32 56 144 155 177 246 290 53 340 346 299 301 306 296 279 286 284 286 273 277 289 288
158 144 142 140 133 126 119 97 79 57 17 24 43 35 46 35 31 61 54 99 167 205 273 84 176 271 307 303 300 313 322 312 311 306 301 292 287 293
122 125 133 139 136 125 127 121 105 87 95 199 220 227 185 160 68 25 357 12 356 355 358 356 315 281 241 266 290 305 312 305 313 326 325 319 306 309
131 116 119 121 117 110 98 131 178 198 187 208 216 212 40 46 30 29 343 343 349 324 331 334 307 232 273 272 273 288 291 293 314 317 314 309 310 308
139 120 114 117 121 113 125 160 184 189 217 228 174 163 157 62 345 5 356 335 304 299 315 317 309 280 237 249 278 282 292 299 302 306 312 305 296 293
137 141 161 164 172 183 192 207 196 194 205 199 185 182 191 204 248 307 327 283 276 287 295 309 336 346 343 323 262 282 298 296 300 306 313 307 301 302
139 164 176 182 187 188 191 199 208 204 187 179 185 200 206 210 212 244 266 282 280 283 290 306 359 10 327 308 301 276 281 291 304 306 298 291 290 294
151 168 184 186 185 188 192 196 196 182 175 187 195 210 213 219 235 245 241 252 268 277 289 305 288 245 263 277 286 290 270 276 290 291 290 292 289 292
174 179 180 176 174 174 175 176 176 181 185 186 203 214 217 219 238 245 241 268 265 269 274 271 262 257 268 303 302 299 294 281 285 284 291 304 308 307
169 181 181 172 168 169 173 175 184 188 197 209 223 229 227 221 234 246 251 260 258 262 274 281 293 303 294 280 286 293 300 309 307 304 292 271 273 283
172 172 170 172 173 167 175 179 181 188 191 214 226 229 230 239 243 242 250 255 264 275 293 303 311 299 284 280 286 292 298 304 306 307 298 289 283 284